Change the Weather History Date:

Friday, October 12, 2012

  Actual Average Record
Temperature  
Mean Temperature 56 °F 59 °F  
Max Temperature 68 °F 70 °F 87 °F (2008)
Min Temperature 43 °F 49 °F 33 °F (1967)
Degree Days  
Heating Degree Days 9 7  
Month to date heating degree days 111 66  
Since 1 July heating degree days 149 102  
Cooling Degree Days 0 1  
Month to date cooling degree days 1 19  
Year to date cooling degree days 1834 1432  
Growing Degree Days 6 (Base 50)    
Moisture  
Dew Point 43 °F    
Average Humidity 64    
Maximum Humidity 86    
Minimum Humidity 42    
Precipitation  
Precipitation T in 0.10 in 1.94 in (1970)
Month to date precipitation 1.26 1.21  
Year to date precipitation 36.34 35.91  
Sea Level Pressure  
Sea Level Pressure 30.29 in    
Wind  
Wind Speed 3 mph (NE)    
Max Wind Speed 9 mph    
Max Gust Speed 14 mph    
Visibility 10 miles    
Events      
T = Trace of Precipitation, MM = Missing Value Source: NWS Daily Summary

Daily Weather History Graph

Daily Weather History Graph

Search for Another Location

Airport or City:

Trip Planner

Search our weather history database for the weather conditions in past years. The results will help you decide how hot, cold, wet, or windy it might be!

Date:

Astronomy

Oct. 12, 2012 Rise Set
Actual Time 7:49 AM EDT 7:08 PM EDT
Civil Twilight 7:22 AM EDT 7:34 PM EDT
Nautical Twilight 6:51 AM EDT 8:05 PM EDT
Astronomical Twilight 6:21 AM EDT 8:35 PM EDT
Moon 4:33 AM EDT (10/12) 5:15 PM EDT (10/12)
Length of Visible Light 12h 12m
Length of Day
11h 19m
Waning Crescent, 11% of the Moon is Illuminated
Oct 12
Waning Crescent
Oct 15
New
Oct 21
First Quarter
Oct 29
Full
Nov 6
Last Quarter

Hourly Weather History & Observations

Time (EDT) Temp. Dew Point Humidity Pressure Visibility Wind Dir Wind Speed Gust Speed Precip Events Conditions
12:53 AM 46.0 °F 41.0 °F 83% 30.23 in 10.0 mi Calm Calm - N/A   Clear
1:53 AM 46.9 °F 42.1 °F 83% 30.22 in 10.0 mi Calm Calm - N/A   Clear
2:53 AM 46.0 °F 41.0 °F 83% 30.22 in 10.0 mi Calm Calm - N/A   Clear
3:53 AM 48.0 °F 42.1 °F 80% 30.24 in 10.0 mi Calm Calm - N/A   Overcast
4:53 AM 48.9 °F 42.1 °F 77% 30.25 in 10.0 mi Calm Calm - N/A   Overcast
5:53 AM 48.0 °F 44.1 °F 86% 30.27 in 10.0 mi Calm Calm - 0.00 in   Overcast
6:53 AM 48.9 °F 44.1 °F 83% 30.26 in 10.0 mi Calm Calm - N/A   Overcast
7:53 AM 50.0 °F 44.1 °F 80% 30.27 in 10.0 mi Calm Calm - N/A   Overcast
8:53 AM 51.1 °F 45.0 °F 80% 30.30 in 10.0 mi Calm Calm - N/A   Overcast
9:53 AM 55.0 °F 46.0 °F 72% 30.32 in 10.0 mi Calm Calm - N/A   Mostly Cloudy
10:53 AM 57.0 °F 42.1 °F 57% 30.33 in 10.0 mi NE 6.9 mph - N/A   Mostly Cloudy
11:53 AM 60.8 °F 42.8 °F 52% 30.34 in 10.0 mi NE 6.9 mph - N/A   Clear
12:53 PM 62.6 °F 42.8 °F 48% 30.34 in 10.0 mi Calm Calm - N/A   Clear
1:53 PM 64.9 °F 43.0 °F 45% 30.33 in 10.0 mi East 3.5 mph - N/A   Clear
2:53 PM 66.9 °F 44.1 °F 44% 30.30 in 10.0 mi Variable 5.8 mph - N/A   Clear
3:53 PM 66.9 °F 43.0 °F 42% 30.30 in 10.0 mi NE 4.6 mph - N/A   Clear
4:53 PM 66.9 °F 43.0 °F 42% 30.28 in 10.0 mi NE 6.9 mph - N/A   Clear
5:53 PM 66.9 °F 44.1 °F 44% 30.30 in 10.0 mi NE 4.6 mph - N/A   Clear
6:53 PM 64.0 °F 44.1 °F 48% 30.30 in 10.0 mi NNE 4.6 mph - N/A   Clear
7:53 PM 61.0 °F 45.0 °F 56% 30.31 in 10.0 mi NE 4.6 mph - N/A   Clear
8:53 PM 59.0 °F 45.0 °F 60% 30.32 in 10.0 mi ENE 5.8 mph - N/A   Clear
9:53 PM 57.2 °F 42.8 °F 59% 30.32 in 10.0 mi ENE 6.9 mph - N/A   Clear
10:53 PM 55.9 °F 41.0 °F 57% 30.32 in 10.0 mi ENE 6.9 mph - N/A   Clear
11:53 PM 55.0 °F 39.9 °F 57% 30.31 in 10.0 mi East 5.8 mph - N/A   Clear